When you browse on this site, cookies collect data to enhance your experience and personalize the content and advertising you see.
Visit our Privacy Policy to learn more. By continuing to use the site, you agree to this use of cookies and data.

Hourly Weather Elbasan

Today, 7 August, Friday

Time Temperature Precipitation Wind Pressure Humidity
00:00 +19°C° 0.1 mm 2 mps 733 mmHg 83%
01:00 +19°C° 0 mm 2 mps 733 mmHg 82%
02:00 +19°C° 0 mm 2 mps 733 mmHg 82%
03:00 +19°C° 0 mm 2 mps 733 mmHg 82%
04:00 +18°C° 0 mm 2 mps 732 mmHg 82%
05:00 +20°C° 0 mm 2 mps 733 mmHg 78%
06:00 +22°C° 0 mm 1 mps 733 mmHg 74%
07:00 +23°C° 0 mm 1 mps 733 mmHg 69%
08:00 +25°C° 0.1 mm 1 mps 733 mmHg 62%
09:00 +27°C° 0.1 mm 1 mps 734 mmHg 54%
10:00 +29°C° 0.1 mm 1 mps 734 mmHg 47%
11:00 +29°C° 0.5 mm 1 mps 734 mmHg 46%
12:00 +30°C° 0.5 mm 2 mps 734 mmHg 46%
13:00 +30°C° 0.5 mm 3 mps 734 mmHg 46%
14:00 +29°C° 1 mm 2 mps 734 mmHg 51%
15:00 +28°C° 1 mm 2 mps 733 mmHg 57%
16:00 +27°C° 1 mm 2 mps 733 mmHg 63%
17:00 +26°C° 0.4 mm 1 mps 733 mmHg 67%
18:00 +25°C° 0.4 mm 1 mps 733 mmHg 72%
19:00 +23°C° 0.4 mm 1 mps 733 mmHg 76%
20:00 +23°C° 0 mm 1 mps 733 mmHg 77%
21:00 +22°C° 0 mm 1 mps 733 mmHg 77%
22:00 +22°C° 0 mm 1 mps 733 mmHg 78%
23:00 +22°C° 0 mm 1 mps 733 mmHg 77%

Tomorrow, 8 August, Saturday

Time Temperature Precipitation Wind Pressure Humidity
00:00 +22°C° 0 mm 1 mps 733 mmHg 77%
01:00 +22°C° 0 mm 1 mps 733 mmHg 76%
02:00 +22°C° 0 mm 1 mps 733 mmHg 76%
03:00 +22°C° 0 mm 1 mps 733 mmHg 76%
04:00 +21°C° 0 mm 1 mps 732 mmHg 76%
05:00 +22°C° 0.2 mm 1 mps 733 mmHg 74%
06:00 +23°C° 0.2 mm 1 mps 733 mmHg 73%
07:00 +24°C° 0.2 mm 1 mps 733 mmHg 71%
08:00 +25°C° 0.1 mm 2 mps 733 mmHg 65%
09:00 +27°C° 0.1 mm 2 mps 733 mmHg 59%
10:00 +28°C° 0.1 mm 2 mps 733 mmHg 53%
11:00 +28°C° 0.1 mm 2 mps 733 mmHg 52%
12:00 +28°C° 0.1 mm 2 mps 733 mmHg 51%
13:00 +29°C° 0.1 mm 2 mps 733 mmHg 50%
14:00 +29°C° 0.2 mm 2 mps 733 mmHg 51%
15:00 +29°C° 0.2 mm 1 mps 733 mmHg 51%
16:00 +29°C° 0.2 mm 1 mps 732 mmHg 52%
17:00 +27°C° 0.2 mm 1 mps 732 mmHg 57%
18:00 +26°C° 0.2 mm 1 mps 732 mmHg 62%
19:00 +24°C° 0.2 mm 1 mps 732 mmHg 68%
20:00 +24°C° 0.1 mm 1 mps 732 mmHg 69%
21:00 +23°C° 0.1 mm 2 mps 732 mmHg 70%
22:00 +23°C° 0.1 mm 2 mps 733 mmHg 71%
23:00 +23°C° 0.1 mm 2 mps 732 mmHg 73%

Day after tomorrow, 9 August, Sunday

Time Temperature Precipitation Wind Pressure Humidity
00:00 +23°C° 0.1 mm 2 mps 732 mmHg 74%
01:00 +21°C° 0.1 mm 2 mps 732 mmHg 76%
02:00 +21°C° 0 mm 2 mps 732 mmHg 76%
03:00 +21°C° 0 mm 2 mps 732 mmHg 77%
04:00 +21°C° 0 mm 2 mps 731 mmHg 77%
05:00 +23°C° 0 mm 2 mps 732 mmHg 73%
06:00 +24°C° 0 mm 2 mps 732 mmHg 68%
07:00 +26°C° 0 mm 2 mps 733 mmHg 64%
08:00 +28°C° 0 mm 2 mps 733 mmHg 56%
09:00 +30°C° 0 mm 2 mps 733 mmHg 48%
10:00 +32°C° 0 mm 2 mps 733 mmHg 41%
11:00 +32°C° 0 mm 2 mps 733 mmHg 38%
12:00 +34°C° 0 mm 2 mps 733 mmHg 36%
13:00 +35°C° 0 mm 2 mps 733 mmHg 33%
14:00 +34°C° 0 mm 3 mps 732 mmHg 37%
15:00 +33°C° 0 mm 3 mps 732 mmHg 40%
16:00 +33°C° 0 mm 3 mps 732 mmHg 43%
17:00 +30°C° 0.1 mm 2 mps 732 mmHg 50%
18:00 +28°C° 0.1 mm 2 mps 732 mmHg 56%
19:00 +27°C° 0.1 mm 2 mps 732 mmHg 62%
20:00 +26°C° 0 mm 2 mps 733 mmHg 64%
21:00 +25°C° 0 mm 2 mps 733 mmHg 66%
22:00 +24°C° 0 mm 2 mps 733 mmHg 69%
23:00 +24°C° 0 mm 2 mps 733 mmHg 69%

10 August, Monday

Time Temperature Precipitation Wind Pressure Humidity
00:00 +24°C° 0 mm 2 mps 733 mmHg 70%
01:00 +23°C° 0 mm 2 mps 733 mmHg 70%
02:00 +23°C° 0 mm 2 mps 733 mmHg 71%
03:00 +23°C° 0 mm 2 mps 733 mmHg 71%
04:00 +21°C° 0 mm 2 mps 733 mmHg 72%
05:00 +24°C° 0 mm 2 mps 733 mmHg 68%
06:00 +25°C° 0 mm 2 mps 733 mmHg 64%
07:00 +27°C° 0 mm 2 mps 733 mmHg 60%
08:00 +29°C° 0 mm 1 mps 734 mmHg 53%
09:00 +31°C° 0 mm 1 mps 734 mmHg 46%
10:00 +33°C° 0 mm 1 mps 734 mmHg 39%
11:00 +33°C° 0 mm 1 mps 734 mmHg 37%
12:00 +35°C° 0 mm 2 mps 734 mmHg 34%
13:00 +35°C° 0 mm 3 mps 734 mmHg 32%
14:00 +35°C° 0 mm 3 mps 733 mmHg 34%
15:00 +34°C° 0 mm 3 mps 733 mmHg 37%
16:00 +33°C° 0 mm 3 mps 733 mmHg 40%
17:00 +30°C° 0 mm 2 mps 733 mmHg 45%
18:00 +29°C° 0 mm 1 mps 733 mmHg 51%
19:00 +27°C° 0 mm 1 mps 734 mmHg 56%
20:00 +26°C° 0 mm 1 mps 734 mmHg 58%
21:00 +25°C° 0 mm 1 mps 734 mmHg 60%
22:00 +25°C° 0 mm 1 mps 734 mmHg 62%
23:00 +24°C° 0 mm 1 mps 734 mmHg 62%

11 August, Tuesday

Time Temperature Precipitation Wind Pressure Humidity
00:00 +24°C° 0 mm 1 mps 735 mmHg 62%
01:00 +24°C° 0 mm 1 mps 735 mmHg 62%
02:00 +24°C° 0 mm 1 mps 734 mmHg 62%
03:00 +23°C° 0 mm 1 mps 734 mmHg 62%
04:00 +23°C° 0 mm 1 mps 734 mmHg 62%
05:00 +25°C° 0 mm 1 mps 734 mmHg 59%
06:00 +26°C° 0 mm 1 mps 735 mmHg 56%
07:00 +28°C° 0 mm 1 mps 735 mmHg 52%
08:00 +29°C° 0 mm 1 mps 735 mmHg 47%
09:00 +31°C° 0 mm 1 mps 735 mmHg 42%
10:00 +33°C° 0 mm 1 mps 736 mmHg 37%
11:00 +34°C° 0 mm 1 mps 735 mmHg 35%
12:00 +35°C° 0 mm 2 mps 735 mmHg 33%
13:00 +36°C° 0 mm 3 mps 735 mmHg 31%
14:00 +35°C° 0 mm 3 mps 735 mmHg 35%
15:00 +34°C° 0 mm 3 mps 734 mmHg 39%
16:00 +33°C° 0 mm 3 mps 734 mmHg 43%
17:00 +30°C° 0 mm 2 mps 734 mmHg 49%
18:00 +28°C° 0 mm 1 mps 734 mmHg 56%
19:00 +26°C° 0 mm 1 mps 734 mmHg 62%
20:00 +26°C° 0 mm 1 mps 734 mmHg 64%
21:00 +25°C° 0 mm 1 mps 734 mmHg 65%
22:00 +25°C° 0 mm 1 mps 735 mmHg 67%
23:00 +25°C° 0 mm 1 mps 734 mmHg 67%

12 August, Wednesday

Time Temperature Precipitation Wind Pressure Humidity
00:00 +24°C° 0 mm 1 mps 734 mmHg 67%
01:00 +24°C° 0 mm 1 mps 734 mmHg 66%
02:00 +24°C° 0 mm 1 mps 734 mmHg 67%
03:00 +23°C° 0 mm 1 mps 734 mmHg 68%
04:00 +23°C° 0 mm 1 mps 734 mmHg 68%
05:00 +25°C° 0 mm 1 mps 734 mmHg 64%
06:00 +26°C° 0 mm 1 mps 734 mmHg 59%
07:00 +28°C° 0 mm 1 mps 734 mmHg 54%
08:00 +30°C° 0 mm 1 mps 734 mmHg 49%
09:00 +31°C° 0 mm 1 mps 734 mmHg 43%
10:00 +33°C° 0 mm 1 mps 735 mmHg 37%
11:00 +35°C° 0 mm 2 mps 734 mmHg 35%
12:00 +36°C° 0 mm 2 mps 734 mmHg 33%
13:00 +36°C° 0 mm 3 mps 734 mmHg 31%
14:00 +35°C° 0 mm 3 mps 734 mmHg 36%
15:00 +34°C° 0 mm 3 mps 733 mmHg 40%
16:00 +33°C° 0 mm 3 mps 733 mmHg 44%
17:00 +30°C° 0 mm 3 mps 733 mmHg 51%
18:00 +28°C° 0 mm 2 mps 733 mmHg 58%
19:00 +27°C° 0 mm 1 mps 733 mmHg 65%
20:00 +26°C° 0 mm 1 mps 734 mmHg 67%
21:00 +25°C° 0 mm 1 mps 734 mmHg 69%
22:00 +25°C° 0 mm 1 mps 734 mmHg 70%
23:00 +25°C° 0 mm 1 mps 734 mmHg 70%
Show more